{"data":{"norad_id":59863,"epoch":"2026-05-25T04:22:24.074112Z","epoch_age_seconds":69387,"freshness":"FRESH","line1":"1 59863U 24098F   26145.18222308  .00000951  00000+0  44075-4 0  9996","line2":"2 59863  43.0006 206.0974 0001284 280.5262  79.5444 15.27582094113544","mean_motion":15.27582094,"eccentricity":0.0001284,"inclination_deg":43.0006,"raan_deg":206.0974,"arg_perigee_deg":280.5262,"mean_anomaly_deg":79.5444,"bstar":4.4075e-5,"rev_number":11354,"period_min":94.266619493381,"perigee_km":482.16185036786,"apogee_km":483.92380134714,"semimajor_km":6861.1798258575,"source":"CELESTRAK","updated_at":"2026-05-25T13:38:19.091283Z"}}